• In Denmark
  • List of Countries
  • For 7 days
  • Water Temperature
  • Satellite Maps
  • Weather Map
  • Weather Widgets
  • user-avatar
    Login

    Hourly Weather Dankon

    Today, 17 October, Tuesday

    Time Temperature Precipitation Wind Pressure Humidity
    00:00 +21°C° 0.1 mm 1 mps 701 mmHg 95%
    01:00 +19°C° 0 mm 0 mps 701 mmHg 97%
    02:00 +19°C° 0 mm 0 mps 701 mmHg 96%
    03:00 +18°C° 0 mm 0 mps 701 mmHg 95%
    04:00 +18°C° 0 mm 0 mps 701 mmHg 94%
    05:00 +18°C° 0 mm 0 mps 702 mmHg 93%
    06:00 +19°C° 0 mm 0 mps 702 mmHg 91%
    07:00 +19°C° 0 mm 0 mps 702 mmHg 90%
    08:00 +23°C° 0 mm 1 mps 703 mmHg 80%
    09:00 +25°C° 0 mm 1 mps 703 mmHg 69%
    10:00 +27°C° 0 mm 1 mps 704 mmHg 59%
    11:00 +28°C° 0 mm 1 mps 703 mmHg 55%
    12:00 +30°C° 0 mm 1 mps 703 mmHg 50%
    13:00 +31°C° 0 mm 1 mps 703 mmHg 46%
    14:00 +30°C° 0 mm 1 mps 702 mmHg 50%
    15:00 +30°C° 0 mm 1 mps 701 mmHg 55%
    16:00 +29°C° 0 mm 1 mps 701 mmHg 59%
    17:00 +27°C° 0 mm 1 mps 701 mmHg 66%
    18:00 +25°C° 0 mm 1 mps 701 mmHg 74%
    19:00 +23°C° 0 mm 1 mps 701 mmHg 82%
    20:00 +23°C° 0 mm 1 mps 702 mmHg 84%
    21:00 +22°C° 0 mm 1 mps 703 mmHg 87%
    22:00 +21°C° 0 mm 1 mps 703 mmHg 89%
    23:00 +19°C° 0 mm 0 mps 703 mmHg 91%

    Tomorrow, 18 October, Wednesday

    Time Temperature Precipitation Wind Pressure Humidity
    00:00 +19°C° 0 mm 0 mps 703 mmHg 92%
    01:00 +18°C° 0 mm 0 mps 703 mmHg 93%
    02:00 +18°C° 0 mm 0 mps 703 mmHg 94%
    03:00 +18°C° 0 mm 0 mps 702 mmHg 95%
    04:00 +17°C° 0 mm 0 mps 702 mmHg 96%
    05:00 +18°C° 0 mm 0 mps 702 mmHg 93%
    06:00 +18°C° 0 mm 0 mps 703 mmHg 91%
    07:00 +19°C° 0 mm 0 mps 703 mmHg 89%
    08:00 +20°C° 0 mm 0 mps 704 mmHg 83%
    09:00 +21°C° 0 mm 0 mps 704 mmHg 78%
    10:00 +25°C° 0 mm 1 mps 705 mmHg 72%
    11:00 +26°C° 0 mm 1 mps 705 mmHg 70%
    12:00 +26°C° 0 mm 1 mps 704 mmHg 67%
    13:00 +27°C° 0 mm 1 mps 704 mmHg 65%
    14:00 +27°C° 0 mm 1 mps 703 mmHg 65%
    15:00 +28°C° 0 mm 1 mps 703 mmHg 64%
    16:00 +28°C° 0 mm 1 mps 702 mmHg 64%
    17:00 +26°C° 0 mm 1 mps 702 mmHg 73%
    18:00 +24°C° 0 mm 1 mps 702 mmHg 81%
    19:00 +22°C° 0 mm 1 mps 703 mmHg 90%
    20:00 +22°C° 0 mm 1 mps 703 mmHg 92%
    21:00 +21°C° 0 mm 1 mps 704 mmHg 94%
    22:00 +19°C° 0 mm 0 mps 704 mmHg 96%
    23:00 +18°C° 0 mm 0 mps 704 mmHg 97%

    Day after tomorrow, 19 October, Thursday

    Time Temperature Precipitation Wind Pressure Humidity
    00:00 +18°C° 0 mm 0 mps 704 mmHg 97%
    01:00 +18°C° 0 mm 0 mps 703 mmHg 98%
    02:00 +18°C° 0 mm 0 mps 703 mmHg 98%
    03:00 +18°C° 0 mm 0 mps 703 mmHg 98%
    04:00 +18°C° 0 mm 0 mps 703 mmHg 98%
    05:00 +18°C° 0 mm 0 mps 703 mmHg 97%
    06:00 +18°C° 0 mm 0 mps 703 mmHg 95%
    07:00 +19°C° 0 mm 0 mps 704 mmHg 94%
    08:00 +22°C° 0 mm 0 mps 704 mmHg 82%
    09:00 +27°C° 0 mm 1 mps 705 mmHg 70%
    10:00 +30°C° 0 mm 1 mps 706 mmHg 58%
    11:00 +30°C° 0.2 mm 1 mps 705 mmHg 61%
    12:00 +28°C° 0.2 mm 0 mps 704 mmHg 63%
    13:00 +28°C° 0.2 mm 0 mps 703 mmHg 66%
    14:00 +28°C° 0.7 mm 0 mps 702 mmHg 70%
    15:00 +27°C° 0.7 mm 0 mps 702 mmHg 74%
    16:00 +27°C° 0.7 mm 0 mps 701 mmHg 78%
    17:00 +25°C° 0.3 mm 0 mps 701 mmHg 82%
    18:00 +24°C° 0.3 mm 0 mps 702 mmHg 87%
    19:00 +22°C° 0.3 mm 0 mps 702 mmHg 91%
    20:00 +21°C° 0 mm 0 mps 703 mmHg 92%
    21:00 +21°C° 0 mm 0 mps 703 mmHg 93%
    22:00 +21°C° 0 mm 0 mps 704 mmHg 94%
    23:00 +21°C° 0.1 mm 0 mps 704 mmHg 95%

    20 October, Friday

    Time Temperature Precipitation Wind Pressure Humidity
    00:00 +20°C° 0.1 mm 0 mps 704 mmHg 96%
    01:00 +20°C° 0.1 mm 0 mps 703 mmHg 97%
    02:00 +20°C° 1.1 mm 0 mps 703 mmHg 97%
    03:00 +20°C° 1.1 mm 0 mps 703 mmHg 98%
    04:00 +19°C° 1.1 mm 0 mps 703 mmHg 98%
    05:00 +20°C° 0.3 mm 0 mps 703 mmHg 97%
    06:00 +20°C° 0.3 mm 0 mps 704 mmHg 97%
    07:00 +20°C° 0.3 mm 0 mps 704 mmHg 96%
    08:00 +23°C° 0.1 mm 0 mps 704 mmHg 87%
    09:00 +26°C° 0.1 mm 0 mps 705 mmHg 77%
    10:00 +28°C° 0.1 mm 0 mps 705 mmHg 68%
    11:00 +29°C° 0.6 mm 0 mps 704 mmHg 66%
    12:00 +29°C° 0.6 mm 0 mps 703 mmHg 64%
    13:00 +30°C° 0.6 mm 0 mps 702 mmHg 62%
    14:00 +29°C° 0.9 mm 0 mps 702 mmHg 66%
    15:00 +29°C° 0.9 mm 0 mps 701 mmHg 69%
    16:00 +28°C° 0.9 mm 0 mps 701 mmHg 72%
    17:00 +26°C° 0.2 mm 0 mps 701 mmHg 78%
    18:00 +25°C° 0.2 mm 0 mps 701 mmHg 84%
    19:00 +23°C° 0.2 mm 0 mps 702 mmHg 89%
    20:00 +22°C° 0.2 mm 0 mps 702 mmHg 91%
    21:00 +22°C° 0.2 mm 0 mps 702 mmHg 92%
    22:00 +21°C° 0.2 mm 0 mps 703 mmHg 94%
    23:00 +21°C° 0.2 mm 0 mps 702 mmHg 95%

    21 October, Saturday

    Time Temperature Precipitation Wind Pressure Humidity
    00:00 +21°C° 0.2 mm 0 mps 702 mmHg 96%
    01:00 +20°C° 0.2 mm 0 mps 702 mmHg 97%
    02:00 +20°C° 0.2 mm 0 mps 702 mmHg 97%
    03:00 +20°C° 0.2 mm 0 mps 701 mmHg 98%
    04:00 +20°C° 0.2 mm 0 mps 701 mmHg 98%
    05:00 +20°C° 0 mm 0 mps 702 mmHg 98%
    06:00 +20°C° 0 mm 0 mps 702 mmHg 97%
    07:00 +21°C° 0 mm 0 mps 702 mmHg 96%
    08:00 +24°C° 0 mm 0 mps 703 mmHg 85%
    09:00 +26°C° 0 mm 0 mps 703 mmHg 73%
    10:00 +29°C° 0 mm 0 mps 704 mmHg 61%
    11:00 +30°C° 0.5 mm 0 mps 703 mmHg 62%
    12:00 +30°C° 0.5 mm 0 mps 702 mmHg 64%
    13:00 +31°C° 0.5 mm 0 mps 701 mmHg 66%
    14:00 +30°C° 0.5 mm 0 mps 700 mmHg 68%
    15:00 +29°C° 0.5 mm 0 mps 700 mmHg 69%
    16:00 +29°C° 0.5 mm 0 mps 699 mmHg 71%
    17:00 +27°C° 0.1 mm 0 mps 700 mmHg 77%
    18:00 +25°C° 0.1 mm 0 mps 700 mmHg 83%
    19:00 +23°C° 0.1 mm 0 mps 700 mmHg 90%
    20:00 +23°C° 0.1 mm 0 mps 701 mmHg 91%
    21:00 +22°C° 0.1 mm 0 mps 701 mmHg 92%
    22:00 +24°C° 0.1 mm 1 mps 701 mmHg 94%
    23:00 +24°C° 0.2 mm 1 mps 701 mmHg 95%

    22 October, Sunday

    Time Temperature Precipitation Wind Pressure Humidity
    00:00 +21°C° 0.2 mm 0 mps 701 mmHg 96%
    01:00 +21°C° 0.2 mm 0 mps 701 mmHg 97%
    02:00 +21°C° 0.6 mm 0 mps 701 mmHg 98%
    03:00 +21°C° 0.6 mm 0 mps 700 mmHg 98%
    04:00 +21°C° 0.6 mm 0 mps 700 mmHg 99%
    05:00 +21°C° 0.6 mm 0 mps 701 mmHg 99%
    06:00 +21°C° 0.6 mm 0 mps 701 mmHg 98%
    07:00 +21°C° 0.6 mm 0 mps 702 mmHg 98%
    08:00 +23°C° 0 mm 0 mps 702 mmHg 88%
    09:00 +26°C° 0 mm 0 mps 702 mmHg 78%
    10:00 +28°C° 0 mm 0 mps 703 mmHg 68%
    11:00 +29°C° 0.2 mm 0 mps 702 mmHg 64%
    12:00 +30°C° 0.2 mm 0 mps 701 mmHg 60%
    13:00 +33°C° 0.2 mm 1 mps 700 mmHg 56%
    14:00 +31°C° 0.2 mm 0 mps 700 mmHg 58%
    15:00 +30°C° 0.2 mm 0 mps 699 mmHg 60%
    16:00 +30°C° 0.2 mm 0 mps 699 mmHg 62%
    17:00 +27°C° 0.1 mm 0 mps 699 mmHg 71%
    18:00 +25°C° 0.1 mm 0 mps 700 mmHg 79%
    19:00 +23°C° 0.1 mm 0 mps 700 mmHg 87%
    20:00 +23°C° 0.3 mm 0 mps 700 mmHg 90%
    21:00 +23°C° 0.3 mm 0 mps 701 mmHg 92%
    22:00 +22°C° 0.3 mm 0 mps 701 mmHg 94%
    23:00 +22°C° 0.8 mm 0 mps 701 mmHg 95%
    Show more